Temperature
14 13 13 13 13 13 13 13 12 12 12 12 13 13 13 13 13 13 14 14 14 14 14 14 13 14 14 14 14 14 14 14 14 14 14 14 14 14 15 15 15 15 15
13 13 12 12 12 12 12 12 12 12 12 12 12 12 12 12 13 13 13 13 13 13 13 13 13 13 13 13 13 13 13 14 14 14 14 14 13 13 14 14 14 14 14
13 13 12 12 11 11 12 11 11 11 11 11 12 12 12 12 12 13 13 13 13 13 13 12 12 12 13 13 13 13 13 13 14 14 14 13 13 13 13 13 13 14 13
13 13 12 12 12 11 11 11 11 11 11 11 11 12 12 12 12 12 12 12 12 12 12 12 12 12 12 12 12 12 13 13 14 14 13 13 13 13 13 13 13 13 13
13 13 13 12 12 12 12 11 11 11 11 11 11 12 12 12 12 12 12 12 12 12 12 12 12 12 12 12 12 13 13 13 13 13 12 12 12 13 12 12 12 12 12
14 13 13 12 12 12 12 12 11 11 11 11 11 12 12 12 12 12 12 11 12 12 12 12 12 12 12 12 12 12 12 12 12 12 12 12 12 12 12 12 12 12 12
14 13 13 12 12 12 12 12 12 12 11 11 11 12 12 12 11 11 11 11 11 12 12 12 11 11 11 12 12 12 12 12 12 12 12 12 12 12 12 12 12 12 11
13 13 13 13 12 12 12 12 12 12 11 11 12 12 12 12 11 11 11 11 11 11 11 11 12 11 11 11 11 11 11 11 11 11 12 12 12 12 12 12 12 12 11
13 13 13 13 13 13 12 12 12 12 11 11 12 12 12 12 12 11 11 11 11 11 11 11 11 11 11 11 11 11 11 11 11 11 12 12 11 11 11 11 11 11 11
13 13 13 13 13 13 13 13 12 12 12 11 12 12 12 12 12 11 11 11 11 11 11 11 11 11 11 11 11 11 11 11 12 12 12 12 11 11 11 11 10 10 10
13 13 13 13 13 13 12 12 12 12 11 11 12 12 12 12 12 11 11 11 11 11 11 10 10 10 10 10 10 10 10 11 11 11 12 11 11 11 10 10 10 10 10
13 13 13 13 12 12 12 12 12 11 11 11 11 11 11 11 12 12 11 11 11 11 11 10 10 10 10 10 10 10 10 10 10 10 10 10 10 10 10 10 10 10 10
13 13 13 13 12 12 12 12 11 11 11 11 11 11 11 11 12 12 11 11 11 11 11 10 10 10 10 9 9 9 9 9 9 9 9 9 9 9 9 9 10 10 10
13 13 13 12 12 12 12 12 11 11 11 11 11 11 11 11 11 11 11 11 11 11 10 10 10 10 10 9 9 9 9 9 8 8 8 8 9 9 9 9 9 9 9
13 13 12 12 12 12 12 11 11 11 11 11 11 11 11 11 11 11 11 11 10 10 10 10 10 10 10 10 10 9 9 8 8 8 8 8 8 8 8 8 8 9 9
12 12 12 12 12 12 11 11 11 11 11 11 11 11 11 11 11 11 11 10 10 10 10 10 10 10 10 10 10 10 9 8 8 8 8 8 8 8 8 8 8 8 8
12 12 12 12 12 11 11 11 11 11 11 11 11 11 11 11 11 10 10 10 10 10 10 10 10 11 11 11 10 10 9 8 8 8 8 7 7 8 8 8 7 7 7
12 12 12 12 12 12 12 11 11 11 11 11 11 11 11 10 10 10 10 10 10 10 10 10 11 11 11 10 10 10 9 9 8 8 7 7 7 7 7 7 7 7 7
11 12 12 12 12 12 12 12 11 10 10 10 10 10 10 10 10 10 10 10 10 10 10 10 11 11 11 10 10 9 9 9 8 8 8 7 7 7 7 7 7 7 7
11 12 12 12 12 12 12 12 12 11 10 10 9 9 9 9 9 9 10 10 10 10 10 11 11 11 10 10 10 9 9 9 8 8 8 7 7 7 7 7 7 7 7
10 12 12 12 12 12 12 12 12 11 10 10 9 9 10 10 9 9 10 10 10 10 11 11 11 11 10 10 10 10 9 9 9 9 8 8 7 7 7 7 7 6 6
10 11 12 12 12 12 12 12 12 11 10 10 10 9 9 9 9 9 9 10 10 11 11 11 11 11 10 10 10 10 10 9 9 9 8 8 7 7 7 6 6 6 6
9 11 12 12 12 12 12 12 12 11 11 10 10 9 9 9 9 10 10 10 11 11 11 11 11 11 11 10 10 10 10 10 9 9 8 7 7 7 6 6 6 6 6
9 11 11 11 12 12 12 12 12 11 11 10 10 10 9 9 10 11 11 11 11 11 11 11 11 10 11 11 10 10 10 10 9 8 8 7 7 6 6 6 6 6 5
9 10 11 11 12 12 12 12 11 11 11 11 11 10 10 10 10 11 11 12 12 11 11 11 11 11 11 11 10 10 10 10 9 8 8 7 6 6 6 5 5 5 5
9 10 11 12 12 12 12 12 12 11 11 11 11 11 11 11 11 11 11 11 11 11 11 11 11 11 11 11 10 10 10 10 9 9 8 7 7 6 5 5 5 5 5
Wind_Speed
4 6 6 6 6 6 5 6 6 5 4 3 3 3 1 1 1 1 3 5 5 5 5 4 4 5 3 4 3 3 2 2 3 3 3 3 5 5 6 6 7 4 5
4 4 4 3 4 5 6 7 6 5 4 3 2 1 2 1 1 1 2 5 5 5 6 7 6 6 6 6 5 4 3 1 1 3 2 3 3 4 5 6 6 5 3
4 3 2 1 1 2 3 3 1 2 3 3 3 3 2 1 2 4 5 6 7 8 7 7 8 8 8 6 6 5 4 2 1 1 2 3 3 4 4 5 6 6 7
5 3 3 2 1 2 4 4 3 3 4 3 2 1 2 4 5 6 6 7 8 9 9 9 9 8 6 6 6 7 6 5 4 3 5 5 6 7 7 6 6 6 6
5 5 5 4 3 3 4 5 4 2 1 1 1 1 3 5 6 6 7 9 8 9 9 9 9 8 8 7 7 6 7 7 7 6 6 6 6 7 8 7 6 5 2
6 5 6 5 4 4 5 5 5 4 2 0 1 4 7 8 12 12 8 8 8 8 7 7 8 9 6 7 8 8 9 8 6 6 6 6 7 6 7 8 6 5 3
5 6 7 7 6 6 7 7 6 5 4 2 4 8 8 8 12 12 9 7 8 9 9 9 9 10 11 8 2 0 5 9 9 6 6 5 6 6 7 8 7 4 3
6 6 8 8 7 6 6 7 6 5 5 4 7 8 7 6 10 12 10 9 8 8 9 10 9 9 11 11 9 8 7 7 6 4 3 5 5 6 6 7 6 2 0
8 7 10 11 10 8 7 7 5 5 6 6 7 8 6 4 6 11 11 5 7 10 10 10 9 8 13 14 9 8 9 9 8 8 8 9 9 8 6 6 8 7 5
9 8 11 12 12 11 10 7 5 5 6 7 7 7 7 5 4 7 8 1 6 8 8 9 11 8 10 12 7 7 8 8 10 11 7 4 1 5 7 6 6 6 6
10 9 10 13 14 13 10 8 6 6 7 7 7 7 7 7 6 7 7 4 0 5 8 7 5 7 8 9 7 5 8 9 8 7 5 5 5 5 7 7 7 5 5
10 10 9 11 13 14 13 11 9 8 7 7 7 6 6 6 6 8 9 8 5 5 7 8 5 6 6 7 6 10 14 12 7 7 6 6 6 6 6 7 6 5 2
10 11 9 10 10 11 14 14 11 9 9 9 9 8 7 6 6 9 10 11 12 8 7 9 8 5 2 2 3 7 8 6 6 6 6 6 6 6 6 6 7 7 5
10 10 9 9 9 10 11 11 12 12 10 10 10 9 8 7 7 6 6 7 10 9 7 7 5 4 4 7 5 3 2 4 4 5 6 6 6 6 6 6 6 6 5
11 10 11 11 10 10 11 10 11 10 10 9 8 8 9 8 8 9 6 4 4 5 7 5 4 5 6 6 4 4 4 4 5 4 5 6 6 6 5 5 5 5 6
12 11 11 11 10 10 10 7 3 5 10 12 10 10 9 11 15 14 12 11 10 8 5 5 7 7 5 3 2 4 5 5 4 4 5 5 5 6 5 5 5 6 6
14 12 12 12 12 12 12 12 9 6 6 10 15 16 15 17 17 16 14 11 8 6 3 6 5 4 3 3 2 4 5 5 1 3 4 5 5 5 5 4 5 5 6
16 15 13 12 13 12 12 13 12 12 10 7 8 16 20 19 16 15 13 9 4 4 6 8 5 4 3 2 3 4 5 5 3 3 4 4 4 5 5 5 4 4 5
18 15 15 13 12 12 11 13 13 14 13 12 9 7 12 14 12 10 9 6 8 8 9 9 5 5 5 4 4 4 4 5 2 2 2 3 3 4 4 4 4 4 4
18 20 17 14 13 13 12 12 12 12 12 13 14 12 11 10 8 7 7 8 8 8 9 7 5 4 5 4 4 3 4 5 5 3 3 3 2 2 4 4 4 5 4
16 18 18 16 15 13 13 12 11 12 13 13 14 16 18 14 12 12 12 11 10 10 7 5 6 5 5 4 4 5 5 3 3 3 2 2 2 2 3 3 4 4 5
14 16 15 15 14 13 12 11 11 12 14 15 12 15 20 14 12 12 12 12 12 9 6 5 5 7 6 6 6 5 4 4 3 3 2 2 1 1 2 3 4 4 4
13 16 15 13 12 13 13 12 11 13 14 13 13 15 15 14 12 11 12 12 10 7 6 6 4 4 6 4 4 5 4 4 4 4 3 2 0 1 1 2 3 3 4
12 14 15 15 13 13 14 12 12 13 14 14 13 13 16 14 12 11 11 11 10 8 7 7 7 8 7 5 5 7 6 7 7 5 5 2 0 1 1 2 2 3 4
12 12 14 15 15 14 14 13 13 13 14 14 13 12 15 16 13 10 7 6 9 9 10 9 7 7 9 8 7 7 10 14 12 9 9 5 4 2 1 4 3 2 2
13 13 14 15 15 13 13 13 14 15 14 14 13 13 15 16 14 11 9 7 7 7 8 8 9 9 10 11 12 12 17 19 18 13 9 5 6 5 4 3 4 2 3
Wind_Direction
290 322 334 346 357 17 37 53 54 50 38 55 71 85 118 210 191 186 176 159 147 140 140 129 100 73 48 19 22 35 22 11 322 338 14 5 24 9 346 331 313 252 215
269 309 328 350 15 40 53 50 40 29 8 354 350 329 272 220 187 197 136 117 115 100 84 77 68 65 52 41 13 15 11 31 339 338 341 8 23 357 345 340 337 338 315
263 272 292 307 53 85 103 95 34 309 297 290 280 281 297 79 90 85 84 83 81 79 75 67 57 50 38 19 10 23 13 15 348 347 34 42 24 358 347 352 5 2 348
250 236 222 201 179 156 159 163 193 257 278 278 269 328 49 85 96 93 87 80 80 76 68 61 53 48 37 6 34 27 14 2 12 30 53 45 22 359 1 355 11 14 16
256 238 206 190 181 157 142 153 166 200 229 8 30 63 88 86 77 76 93 92 94 91 83 78 71 68 63 50 56 35 30 27 22 21 40 35 18 9 4 349 352 345 33
248 241 197 189 177 149 147 153 147 141 124 76 14 59 63 69 44 39 87 97 98 100 104 111 97 56 51 59 66 54 49 44 23 17 30 19 15 5 352 341 335 343 5
242 233 187 184 175 164 162 156 152 152 153 148 86 79 75 54 40 38 67 97 83 72 63 58 62 40 23 1 355 90 71 53 41 45 33 1 355 352 344 341 347 9 14
226 210 176 174 168 164 158 153 165 169 152 129 106 99 93 70 42 35 33 99 91 84 79 79 65 41 21 8 18 24 29 15 352 17 347 324 335 338 333 331 345 4 326
216 198 175 171 167 167 160 161 173 164 148 146 128 123 117 94 46 39 23 101 92 75 65 66 70 50 23 21 23 20 10 354 340 318 285 279 300 318 318 348 1 4 357
211 204 178 172 174 179 176 173 178 170 164 161 149 146 145 141 98 61 26 22 125 118 106 86 70 64 39 25 24 22 3 333 322 315 306 276 326 39 20 21 12 6 1
204 207 188 177 181 186 185 182 181 182 178 172 162 156 156 152 122 80 59 40 130 160 143 118 95 76 53 26 23 21 344 326 316 327 359 23 34 31 20 13 11 18 20
201 205 202 184 187 192 189 191 191 188 179 169 162 157 149 143 126 104 86 61 47 99 109 116 124 102 60 23 17 358 356 360 356 1 9 11 17 21 8 1 358 0 29
206 202 201 190 195 186 186 189 189 189 189 180 173 172 166 144 119 120 106 89 85 91 101 121 135 129 69 302 290 329 355 11 356 5 9 3 358 3 2 1 355 356 359
211 200 190 187 185 180 183 184 187 189 193 188 185 184 165 153 155 158 144 121 115 122 127 128 147 194 257 283 267 244 69 31 352 11 9 358 352 2 5 5 3 353 359
206 198 188 188 183 181 185 188 195 194 194 190 190 178 161 169 169 165 166 162 174 152 145 153 192 215 233 238 199 122 87 47 17 19 17 7 357 358 356 3 6 359 0
203 198 191 187 180 180 177 161 74 178 191 200 182 160 159 154 143 135 124 114 105 122 157 205 217 220 204 177 115 122 108 75 13 16 30 18 357 349 353 4 27 14 356
203 195 191 188 185 183 174 166 151 98 94 148 149 144 142 148 148 144 138 127 115 125 184 246 235 189 160 154 138 103 103 110 51 25 47 27 356 349 360 9 45 13 346
209 195 191 191 188 185 175 171 168 163 157 140 128 138 144 150 150 147 142 141 161 189 220 244 224 161 154 135 98 91 94 85 47 26 63 37 358 347 4 360 41 27 337
215 201 194 191 186 184 180 178 176 175 174 163 142 135 141 142 138 143 153 189 200 199 218 237 201 167 162 154 137 132 129 119 130 288 94 77 10 347 14 353 354 359 337
221 202 190 189 185 182 185 187 184 179 177 169 166 164 161 163 169 176 195 210 220 214 215 210 171 155 147 149 146 163 174 166 183 208 119 97 58 355 350 345 350 345 359
223 200 190 190 189 185 183 188 186 179 180 177 175 174 173 182 187 189 196 206 221 236 215 184 156 151 158 169 189 197 198 180 170 161 129 102 50 358 332 340 355 2 11
224 195 191 191 186 185 181 186 187 181 181 181 176 171 173 188 196 195 198 204 216 228 190 163 178 176 185 193 196 197 197 183 170 165 155 128 107 334 3 2 9 2 357
224 195 185 190 187 178 178 185 184 177 176 178 178 172 180 197 204 202 200 204 209 208 181 168 204 210 192 182 178 189 203 181 157 145 135 113 41 344 17 342 333 342 8
221 198 184 187 188 185 186 186 182 178 180 182 183 180 183 197 213 213 206 200 196 195 190 186 196 220 220 186 182 196 198 162 147 151 149 139 302 333 345 327 323 3 7
224 208 188 184 188 186 184 183 183 185 187 190 192 190 183 192 208 217 223 206 191 191 195 196 195 212 225 216 208 202 174 158 158 158 151 168 191 189 274 297 294 307 320
221 211 190 182 186 186 182 182 181 185 190 193 199 195 184 189 198 205 213 219 214 204 202 203 203 207 216 217 219 195 168 166 165 167 177 182 185 190 202 249 277 289 303
Height
1467 1464 1461 1457 1453 1448 1445 1444 1446 1447 1449 1451 1453 1454 1455 1456 1456 1457 1459 1460 1462 1464 1465 1467 1468 1469 1469 1470 1472 1473 1475 1476 1476 1475 1474 1473 1472 1470 1469 1467 1465 1463 1461
1465 1462 1459 1457 1453 1450 1447 1446 1448 1449 1450 1451 1453 1455 1456 1457 1457 1458 1459 1461 1463 1464 1465 1466 1467 1468 1469 1470 1472 1473 1474 1474 1474 1473 1473 1472 1471 1469 1467 1465 1462 1460 1458
1464 1461 1459 1457 1455 1452 1450 1450 1451 1451 1452 1452 1454 1455 1457 1458 1458 1459 1461 1462 1464 1465 1466 1467 1468 1469 1471 1472 1473 1473 1474 1474 1474 1473 1473 1472 1471 1469 1467 1464 1460 1457 1456
1462 1460 1458 1457 1455 1454 1453 1453 1453 1454 1454 1454 1455 1456 1458 1459 1460 1461 1462 1463 1465 1467 1468 1470 1471 1472 1474 1474 1474 1474 1474 1474 1474 1474 1473 1472 1471 1469 1466 1463 1460 1458 1457
1460 1459 1457 1456 1455 1455 1455 1455 1455 1456 1456 1457 1457 1459 1461 1462 1462 1463 1464 1465 1467 1469 1471 1473 1475 1475 1476 1477 1476 1476 1475 1474 1474 1474 1473 1472 1470 1466 1464 1463 1462 1461 1458
1457 1456 1455 1454 1455 1455 1455 1456 1457 1457 1459 1460 1461 1462 1463 1463 1465 1466 1467 1468 1470 1472 1474 1476 1477 1478 1479 1479 1479 1478 1477 1477 1476 1475 1474 1473 1470 1468 1466 1464 1463 1460 1458
1454 1453 1452 1452 1453 1454 1455 1456 1457 1459 1460 1462 1464 1464 1465 1466 1468 1469 1471 1472 1473 1475 1476 1478 1479 1480 1481 1481 1481 1481 1480 1479 1478 1477 1475 1474 1472 1470 1468 1465 1463 1461 1459
1450 1450 1449 1450 1452 1454 1455 1456 1458 1460 1461 1463 1465 1466 1467 1469 1470 1472 1473 1474 1476 1477 1478 1480 1481 1482 1482 1482 1481 1481 1480 1479 1479 1477 1476 1475 1474 1472 1470 1468 1465 1462 1459
1446 1446 1446 1448 1450 1452 1453 1455 1457 1459 1461 1464 1465 1467 1469 1470 1472 1474 1475 1477 1478 1479 1480 1481 1483 1483 1483 1482 1481 1481 1480 1479 1478 1477 1477 1476 1475 1473 1471 1467 1464 1461 1460
1442 1443 1443 1445 1447 1450 1452 1454 1456 1459 1461 1463 1465 1468 1470 1471 1473 1475 1476 1478 1479 1481 1482 1483 1484 1484 1484 1483 1481 1481 1480 1480 1479 1478 1477 1476 1475 1473 1470 1468 1465 1462 1460
1437 1439 1440 1441 1443 1446 1449 1452 1454 1457 1460 1463 1465 1467 1469 1472 1474 1475 1477 1478 1480 1481 1482 1483 1484 1484 1484 1483 1482 1481 1481 1481 1479 1478 1478 1476 1475 1472 1470 1468 1466 1464 1462
1432 1434 1436 1437 1439 1442 1444 1448 1451 1455 1458 1461 1463 1466 1468 1470 1473 1475 1477 1479 1480 1481 1482 1483 1484 1484 1484 1483 1483 1483 1482 1481 1480 1478 1477 1476 1474 1472 1470 1468 1467 1465 1463
1426 1428 1430 1433 1435 1437 1440 1443 1447 1451 1455 1458 1461 1463 1466 1468 1471 1474 1476 1478 1480 1481 1482 1483 1484 1485 1484 1485 1485 1485 1484 1482 1480 1479 1478 1476 1475 1473 1471 1469 1467 1465 1464
1419 1421 1424 1427 1430 1432 1436 1439 1443 1447 1451 1455 1458 1461 1464 1466 1469 1472 1475 1477 1479 1480 1482 1483 1484 1485 1485 1485 1485 1485 1484 1483 1482 1481 1479 1477 1475 1473 1471 1470 1468 1466 1465
1412 1415 1418 1421 1424 1427 1431 1435 1440 1444 1448 1451 1455 1458 1461 1464 1468 1471 1473 1476 1478 1479 1481 1483 1484 1484 1484 1484 1485 1485 1484 1483 1483 1482 1480 1478 1476 1475 1473 1471 1470 1468 1467
1405 1409 1412 1415 1419 1423 1427 1431 1436 1440 1444 1448 1452 1456 1458 1462 1466 1469 1472 1474 1476 1478 1480 1482 1482 1483 1484 1485 1486 1485 1483 1483 1483 1482 1480 1479 1477 1476 1475 1473 1471 1470 1469
1398 1401 1405 1409 1413 1418 1422 1426 1430 1436 1440 1445 1449 1452 1456 1459 1463 1466 1469 1472 1474 1476 1478 1479 1481 1482 1483 1484 1485 1484 1484 1483 1483 1482 1481 1480 1479 1477 1476 1475 1473 1472 1471
1390 1395 1398 1402 1407 1412 1417 1421 1426 1430 1435 1440 1445 1449 1453 1456 1460 1463 1466 1469 1471 1473 1475 1477 1479 1480 1482 1483 1483 1483 1483 1483 1483 1483 1482 1481 1480 1479 1478 1476 1475 1473 1472
1382 1388 1391 1396 1401 1407 1412 1417 1422 1426 1431 1435 1439 1444 1449 1453 1457 1460 1462 1465 1468 1470 1472 1474 1477 1478 1479 1480 1481 1481 1482 1482 1482 1482 1482 1481 1480 1480 1478 1477 1476 1475 1473
1373 1380 1385 1390 1395 1401 1406 1412 1417 1421 1426 1430 1434 1438 1443 1448 1452 1455 1458 1461 1465 1468 1470 1472 1474 1475 1477 1478 1479 1479 1480 1480 1481 1481 1481 1481 1480 1480 1479 1477 1476 1475 1473
1365 1374 1379 1384 1389 1394 1400 1406 1411 1416 1421 1426 1430 1433 1438 1443 1447 1451 1454 1458 1461 1464 1467 1469 1471 1472 1474 1475 1477 1478 1479 1480 1480 1480 1480 1480 1479 1479 1478 1477 1476 1474 1473
1358 1367 1372 1378 1383 1389 1394 1401 1407 1411 1416 1421 1426 1430 1434 1440 1444 1448 1451 1455 1458 1460 1463 1465 1468 1469 1471 1472 1474 1475 1476 1477 1478 1478 1478 1478 1478 1477 1476 1476 1475 1474 1473
1350 1360 1366 1372 1378 1383 1390 1396 1402 1406 1411 1417 1422 1426 1431 1436 1441 1445 1449 1452 1455 1458 1460 1462 1464 1466 1468 1470 1471 1472 1473 1474 1475 1475 1476 1476 1476 1475 1474 1474 1473 1473 1472
1344 1353 1360 1366 1373 1379 1385 1391 1397 1402 1408 1413 1418 1423 1427 1432 1437 1442 1445 1448 1451 1453 1456 1458 1461 1463 1465 1467 1468 1469 1470 1471 1471 1472 1472 1473 1473 1473 1472 1471 1471 1471 1470
1339 1348 1355 1362 1368 1374 1380 1386 1392 1398 1404 1409 1414 1419 1423 1428 1433 1437 1440 1443 1446 1449 1452 1454 1456 1459 1461 1463 1464 1465 1466 1466 1467 1468 1468 1469 1469 1469 1469 1468 1468 1468 1468
1336 1344 1351 1358 1364 1370 1376 1382 1388 1394 1399 1404 1409 1414 1418 1423 1427 1432 1436 1439 1442 1445 1447 1449 1451 1454 1456 1458 1460 1461 1461 1462 1463 1464 1464 1465 1465 1465 1466 1466 1466 1465 1464